Tracking 30923 objects as of 1-Jul-2025
HD Live streaming from Space Station
objects crossing your sky now

DIAMANT B-P4 R/B

Track DIAMANT B-P4 R/B now!
10-day predictions


NORAD ID: 7647
Int'l Code: 1975-010B
Perigee: 803.5 km
Apogee: 1,122.5 km
Inclination: 49.8 °
Period: 104.2 minutes
Semi major axis: 7333 km
RCS: 0.969 m2 (medium)
Launch date: February 6, 1975
Source: France (FR)
Launch site: FRENCH GUIANA (FRGUI)

Note: This is a ROCKET BODY
Your satellite tracking list
FREGAT DEB
Track 1 satellite(s)




NASA's NSSDC Master Catalog

Two Line Element Set (TLE):
1 07647U 75010B   25181.57895898 -.00000067  00000-0  58367-4 0  9990
2 07647  49.8243 255.7490 0217509 165.4426 195.2864 13.82271111542407
Source of the keplerian elements: AFSPC